Location: Unspecified
(52.1955°N, 0.0000°E)
Time: 00:36:29
(UTC+00:00)

Vanguard 1 Rocket - Visible Passes

Search period start: 05 April 2026 00:00
Search period end: 15 April 2026 00:00
Orbit: 654 x 4213 km, 34.3° (Epoch: 28 March)

Date Brightness Start Highest point End Pass type
(mag) Time Alt. Az. Time Alt. Az. Time Alt. Az.
5 Apr 9.8 02:28:37 30° SSW 02:31:30 32° S 02:40:05 10° ESE visible
5 Apr 9.6 04:47:17 10° WSW 04:56:11 23° SSW 05:02:00 10° SSE visible
5 Apr11.023:02:26ESE23:02:26ESE22:30:55SSWvisible
6 Apr 10.0 01:19:31 32° SSE 01:19:31 32° SSE 01:28:28 10° ESE visible
6 Apr 9.6 03:36:37 19° WSW 03:44:04 30° SSW 03:51:32 10° SE visible
6 Apr11.321:53:16E21:53:16E21:23:46Svisible
7 Apr 10.4 00:10:21 25° SE 00:10:21 25° SE 00:16:17 10° ESE visible
7 Apr 9.8 02:27:26 31° SSW 02:31:25 35° S 02:40:30 10° SE visible
7 Apr 9.7 04:46:55 10° WSW 04:56:00 22° SSW 05:02:01 10° SSE visible
7 Apr 10.8 22:33:52 10° SSW 23:01:07 15° ESE 23:03:18 10° ESE visible
8 Apr 10.0 01:18:10 36° S 01:18:12 36° S 01:28:58 10° ESE visible
8 Apr 9.7 03:35:14 18° WSW 03:43:57 30° SSW 03:51:46 10° SE visible
8 Apr 11.2 21:22:17 10° S 21:51:44 - E 21:27:35 15° SSE visible
9 Apr 10.3 00:08:46 31° SE 00:08:46 31° SE 00:16:52 10° ESE visible
9 Apr 9.8 02:25:50 30° SW 02:31:16 36° S 02:40:50 10° SE visible
9 Apr 9.9 04:46:39 10° WSW 04:55:44 21° SW 05:01:51 10° S visible
9 Apr 11.3 20:14:25 10° SSE 20:21:20 13° SE 20:21:20 13° SE visible
9 Apr 10.7 22:31:21 10° SSW 22:59:12 21° ESE 23:04:05 10° ESE visible
10 Apr 10.0 01:16:14 38° S 01:17:58 39° S 01:29:21 10° ESE visible
10 Apr 9.8 03:33:15 15° WSW 03:43:42 30° SSW 03:51:52 10° SSE visible
10 Apr 10.9 21:18:54 10° S 21:49:19 12° ESE 21:50:15 10° E visible
10 Apr 10.2 23:43:38 10° SW 00:06:18 37° SSE 00:17:19 10° ESE visible
11 Apr 9.8 02:23:17 27° SW 02:31:01 37° SSW 02:41:03 10° SE visible
11 Apr 11.0 20:08:51 10° SSE 20:22:29 18° SE 20:28:05 16° ESE visible
11 Apr 10.5 22:29:15 10° SSW 22:55:39 30° SE 23:04:39 10° ESE visible
12 Apr 10.0 00:57:44 10° WSW 01:17:40 41° S 01:29:39 10° ESE visible
12 Apr 9.9 03:29:33 10° W 03:43:22 29° SSW 03:51:51 10° SSE visible
12 Apr 10.7 21:16:13 10° SSW 21:35:38 29° SSE 21:51:04 10° E visible
12 Apr 10.2 23:42:10 10° SW 00:03:42 41° S 00:17:39 10° ESE visible
13 Apr 9.9 02:12:58 10° WSW 02:30:41 37° SSW 02:41:11 10° SE visible
13 Apr 11.0 20:05:02 10° S 20:21:31 22° SE 20:36:05 10° E visible
13 Apr 10.4 22:27:30 10° SW 22:49:21 38° SSE 23:05:01 10° ESE visible
14 Apr 10.0 00:56:40 10° WSW 01:17:17 42° S 01:29:50 10° ESE visible
14 Apr 10.0 03:29:01 10° W 03:42:53 27° SW 03:51:39 10° SSE visible
14 Apr 10.7 21:14:02 10° SSW 21:34:50 33° SSE 21:51:35 10° E visible
